Fosston, MN

4:59 PM CDT on September 19, 2017 (GMT -0500)
Fosston Municipal

Weather History for KFSE - October, 2012

Change the Weather History Date:

Wednesday, October 17, 2012

  Actual Average Record
Temperature  
Mean Temperature 48 °F -  
Max Temperature 55 °F 52 °F 79 °F (1956)
Min Temperature 42 °F 31 °F 13 °F (1972)
Degree Days  
Heating Degree Days 16    
Moisture  
Dew Point 45 °F    
Average Humidity 89    
Maximum Humidity 100    
Minimum Humidity 67    
Precipitation  
Precipitation 0.64 in - - ()
Sea Level Pressure  
Sea Level Pressure 29.15 in    
Wind  
Wind Speed 5 mph (SSW)    
Max Wind Speed 15 mph    
Max Gust Speed 22 mph    
Visibility 7 miles    
Events Rain    
Averages and records for this station are not official NWS values.
T = Trace of Precipitation, MM = Missing Value Source: NWS Daily Summary

Daily Weather History Graph

Daily Weather History Graph

Search for Another Location

Airport or City:

Trip Planner

Search our weather history database for the weather conditions in past years. The results will help you decide how hot, cold, wet, or windy it might be!

Date:

Astronomy

Oct. 17, 2012 Rise Set
Actual Time 7:45 AM CDT 6:30 PM CDT
Civil Twilight 7:14 AM CDT 7:01 PM CDT
Nautical Twilight 6:38 AM CDT 7:37 PM CDT
Astronomical Twilight 6:02 AM CDT 8:12 PM CDT
Moon 10:34 AM CDT (10/17) 7:53 PM CDT (10/17)
Length of Visible Light 11h 47m
Length of Day
10h 44m
Waxing Crescent, 7% of the Moon is Illuminated
Oct 17
Waxing Crescent
Oct 21
First Quarter
Oct 29
Full
Nov 6
Last Quarter
Nov 13
New

Hourly Weather History & Observations

Time (CDT) Temp. Windchill Dew Point Humidity Pressure Visibility Wind Dir Wind Speed Gust Speed Precip Events Conditions
12:15 AM 55.4 °F - 44.6 °F 67% 29.30 in 10.0 mi SE 5.8 mph - N/A   Clear
12:35 AM 53.6 °F - 42.8 °F 67% 29.29 in 10.0 mi Calm Calm - N/A   Clear
12:55 AM 51.8 °F - 42.8 °F 71% 29.29 in 10.0 mi SE 4.6 mph - N/A   Clear
1:15 AM 53.6 °F - 44.6 °F 72% 29.28 in 10.0 mi SE 3.5 mph - N/A   Clear
1:35 AM 53.6 °F - 44.6 °F 72% 29.27 in 10.0 mi SE 4.6 mph - N/A   Clear
1:55 AM 53.6 °F - 44.6 °F 72% 29.27 in 10.0 mi SE 5.8 mph - N/A   Clear
2:15 AM 53.6 °F - 44.6 °F 72% 29.26 in 10.0 mi Calm Calm - N/A   Clear
2:27 AM 53.6 °F - 44.6 °F 72% 29.26 in 10.0 mi SE 5.8 mph - N/A   Clear
2:55 AM 53.6 °F - 44.6 °F 72% 29.25 in 10.0 mi SE 6.9 mph - N/A   Clear
3:12 AM 51.8 °F - 42.8 °F 71% 29.24 in 10.0 mi SE 6.9 mph - N/A   Clear
3:35 AM 51.8 °F - 42.8 °F 71% 29.23 in 10.0 mi SE 5.8 mph - N/A   Clear
3:55 AM 51.8 °F - 44.6 °F 76% 29.22 in 10.0 mi SE 5.8 mph - N/A   Clear
4:15 AM 53.6 °F - 44.6 °F 72% 29.21 in 10.0 mi SE 5.8 mph - N/A   Clear
4:35 AM 53.6 °F - 46.4 °F 77% 29.21 in 10.0 mi SE 6.9 mph - N/A   Clear
4:55 AM 53.6 °F - 44.6 °F 72% 29.21 in 10.0 mi SSW 8.1 mph 21.9 mph N/A   Scattered Clouds
5:07 AM 53.6 °F - 44.6 °F 72% 29.21 in 10.0 mi Calm Calm - N/A   Mostly Cloudy
5:42 AM 53.6 °F - 44.6 °F 72% 29.21 in 10.0 mi Calm Calm - N/A   Overcast
5:55 AM 51.8 °F - 44.6 °F 76% 29.20 in 10.0 mi Calm Calm - N/A   Mostly Cloudy
6:08 AM 51.8 °F - 44.6 °F 76% 29.19 in 10.0 mi Calm Calm - N/A   Unknown
6:36 AM 51.8 °F - 44.6 °F 76% 29.19 in 10.0 mi SSE 3.5 mph - N/A Rain Light Rain
6:55 AM 51.8 °F - 44.6 °F 76% 29.19 in 10.0 mi Calm Calm - N/A Rain Light Rain
7:08 AM 51.8 °F - 44.6 °F 76% 29.19 in 10.0 mi Calm Calm - N/A   Drizzle
7:35 AM 48.2 °F - 44.6 °F 87% 29.18 in 10.0 mi Calm Calm - N/A   Drizzle
7:56 AM 48.2 °F - 44.6 °F 87% 29.17 in 7.0 mi Calm Calm - N/A Rain Rain
8:15 AM 48.2 °F - 46.4 °F 93% 29.18 in 10.0 mi SSE 6.9 mph - N/A Rain Rain
8:35 AM 48.2 °F - 46.4 °F 93% 29.18 in 10.0 mi SSE 3.5 mph - 0.02 in Rain Rain
8:55 AM 48.2 °F - 46.4 °F 93% 29.17 in 7.0 mi Calm Calm - 0.03 in Rain Light Rain
9:16 AM 48.2 °F - 46.4 °F 93% 29.16 in 7.0 mi Calm Calm - 0.01 in Rain Rain
9:26 AM 48.2 °F - 46.4 °F 93% 29.16 in 7.0 mi Calm Calm - 0.01 in Rain Light Rain
9:55 AM 48.2 °F - 46.4 °F 93% 29.15 in 5.0 mi Calm Calm - 0.04 in Rain Rain
10:15 AM 48.2 °F - 46.4 °F 93% 29.14 in 3.0 mi Calm Calm - 0.04 in Rain Rain
10:35 AM 48.2 °F - 46.4 °F 93% 29.13 in 3.0 mi Calm Calm - 0.07 in Rain Rain
10:55 AM 48.2 °F - 46.4 °F 93% 29.13 in 3.0 mi Calm Calm - 0.10 in Rain Rain
11:15 AM 48.2 °F - 46.4 °F 93% 29.11 in 5.0 mi Calm Calm - 0.03 in Rain Light Rain
11:35 AM 48.2 °F - 46.4 °F 93% 29.11 in 4.0 mi Calm Calm - 0.05 in Rain Rain
11:55 AM 48.2 °F - 46.4 °F 93% 29.10 in 2.5 mi Calm Calm - 0.09 in Rain Rain
12:15 PM 48.2 °F - 48.2 °F 100% 29.10 in 4.0 mi Calm Calm - 0.04 in Rain Rain
12:35 PM 48.2 °F - 48.2 °F 100% 29.09 in 4.0 mi Calm Calm - 0.07 in Rain Light Rain
12:55 PM 48.2 °F - 48.2 °F 100% 29.09 in 2.5 mi Calm Calm - 0.11 in Rain Rain
1:15 PM 48.2 °F - 48.2 °F 100% 29.07 in 5.0 mi West 6.9 mph - 0.07 in Rain Rain
1:35 PM 48.2 °F - 48.2 °F 100% 29.07 in 4.0 mi WNW 9.2 mph - 0.11 in Rain Rain
1:55 PM 48.2 °F - 46.4 °F 93% 29.06 in 7.0 mi WNW 10.4 mph - 0.14 in Rain Rain
2:15 PM 46.4 °F 41.9 °F 46.4 °F 100% 29.07 in 10.0 mi West 9.2 mph - 0.01 in   Drizzle
2:35 PM 46.4 °F 42.4 °F 46.4 °F 100% 29.07 in 10.0 mi West 8.1 mph - 0.02 in Rain Light Rain
2:55 PM 46.4 °F 41.5 °F 46.4 °F 100% 29.06 in 10.0 mi West 10.4 mph - 0.05 in Rain Rain
3:15 PM 46.4 °F 41.1 °F 46.4 °F 100% 29.06 in 10.0 mi West 11.5 mph - 0.02 in Rain Light Rain
3:35 PM 46.4 °F 41.1 °F 46.4 °F 100% 29.06 in 10.0 mi West 11.5 mph - 0.03 in   Drizzle
3:55 PM 48.2 °F - 46.4 °F 93% 29.07 in 10.0 mi West 9.2 mph - 0.03 in   Drizzle
4:15 PM 48.2 °F - 46.4 °F 93% 29.07 in 10.0 mi WSW 12.7 mph - N/A   Light Drizzle
4:35 PM 46.4 °F 40.7 °F 46.4 °F 100% 29.07 in 2.5 mi WSW 12.7 mph 16.1 mph N/A   Drizzle
4:55 PM 46.4 °F 41.5 °F 46.4 °F 100% 29.07 in 2.5 mi WSW 10.4 mph - 0.01 in   Drizzle
5:15 PM 46.4 °F 41.1 °F 46.4 °F 100% 29.08 in 2.5 mi WSW 11.5 mph - 0.01 in   Drizzle
5:35 PM 46.4 °F 41.1 °F 46.4 °F 100% 29.08 in 3.0 mi WSW 11.5 mph 17.3 mph 0.01 in   Drizzle
5:55 PM 46.4 °F 40.1 °F 44.6 °F 93% 29.09 in 7.0 mi WSW 15.0 mph - 0.01 in   Light Drizzle
6:15 PM 46.4 °F 41.1 °F 44.6 °F 93% 29.09 in 3.0 mi SW 11.5 mph - N/A   Overcast
6:35 PM 46.4 °F 41.5 °F 44.6 °F 93% 29.10 in 3.0 mi WSW 10.4 mph - N/A   Overcast
6:55 PM 46.4 °F 41.1 °F 44.6 °F 93% 29.10 in 4.0 mi SW 11.5 mph - N/A   Overcast
7:00 PM 46.4 °F 41.1 °F 44.6 °F 93% 29.10 in 3.0 mi WSW 11.5 mph - N/A   Overcast
7:35 PM 44.6 °F 38.4 °F 44.6 °F 100% 29.11 in 4.0 mi WSW 12.7 mph - N/A   Drizzle
7:55 PM 44.6 °F 37.8 °F 42.8 °F 93% 29.11 in 10.0 mi West 15.0 mph 21.9 mph 0.01 in   Overcast
8:15 PM 44.6 °F 38.1 °F 42.8 °F 93% 29.12 in 7.0 mi WSW 13.8 mph - N/A   Drizzle
8:35 PM 44.6 °F 38.8 °F 42.8 °F 93% 29.12 in 4.0 mi WSW 11.5 mph - N/A   Drizzle
8:55 PM 44.6 °F 38.1 °F 42.8 °F 93% 29.13 in 5.0 mi SW 13.8 mph - N/A   Light Drizzle
9:15 PM 42.8 °F 36.6 °F 42.8 °F 100% 29.13 in 4.0 mi SW 11.5 mph - N/A   Drizzle
9:35 PM 42.8 °F 36.6 °F 42.8 °F 100% 29.14 in 4.0 mi SSW 11.5 mph - 0.01 in   Drizzle
9:55 PM 42.8 °F 36.6 °F 42.8 °F 100% 29.13 in 3.0 mi SSW 11.5 mph - 0.01 in Rain Rain
10:15 PM 42.8 °F 36.6 °F 42.8 °F 100% 29.13 in 3.0 mi SSW 11.5 mph - 0.01 in   Drizzle
10:35 PM 42.8 °F 35.8 °F 42.8 °F 100% 29.13 in 4.0 mi SSW 13.8 mph - 0.01 in   Light Drizzle
10:55 PM 42.8 °F 35.8 °F 41.0 °F 93% 29.13 in 2.0 mi SSW 13.8 mph 17.3 mph 0.01 in   Drizzle
11:15 PM 42.8 °F 36.2 °F 41.0 °F 93% 29.13 in 3.0 mi SSW 12.7 mph - N/A   Overcast
11:35 PM 42.8 °F 37.0 °F 41.0 °F 93% 29.12 in 2.5 mi South 10.4 mph - N/A   Overcast
11:55 PM 42.8 °F 37.0 °F 41.0 °F 93% 29.12 in 2.5 mi South 10.4 mph - N/A   Overcast